Location: Mexico
(19.4000°N, 99.1500°W)
Time: 12:45:01
(UTC-06:00)

ISS - Pass Details

Date: 24 March 2017
Orbit: 401 x 409 km, 51.6° (Epoch: 01 May)

Event Time Altitude Azimuth Distance (km) Brightness Sun altitude
Rises 20:36:46 0° 243° (WSW) 2,301 0.7 -26.1°
Reaches altitude 10° 20:39:07 10° 259° (W) 1,446 -0.2 -26.6°
Enters shadow 20:41:13 21° 298° (WNW) 956 -1.3 -27.1°
